Regional Weather Roundup
Issued by NWS Portland, ME

Current Version | Previous Version | Text Only | Print | Product List | Glossary Off
Versions: 1 2 3 4 5 6 7 8 9 10 11 12 13 14 15 16 17 18 19 20 21 22 23 24 25 26 27 28 29 30 31 32 33 34 35 36 37 38 39 40 41 42 43 44 45 46 47 48 49 50
000 ASUS41 KGYX 190305 RWRGYX WEATHER ROUNDUP FOR MAINE AND NEW HAMPSHIRE NATIONAL WEATHER SERVICE GRAY ME 1100 PM EDT THU OCT 18 2018 MEZ002-005-006-010-012-015-018-020-021-024-026-027-029-190400- MAINE CITY SKY/WX TMP DP RH WIND PRES REMARKS PORTLAND FAIR 30 23 75 CALM 30.22F SANFORD FAIR 28 22 78 S5 30.23S BAR HARBOR FAIR 33 18 53 VRB3 30.17S WISCASSET FAIR 29 23 78 CALM 30.22F ROCKLAND FAIR 31 22 69 W3 30.20S FRYEBURG FAIR 35 17 47 VRB6 30.20R LEWISTONAUBURN FAIR 31 20 63 CALM 30.20F AUGUSTA FAIR 33 18 53 SW3 30.19F WATERVILLE FAIR 32 18 56 W7 30.15F BANGOR FAIR 32 17 54 W5 30.16R GREENVILLE N/A 29 17 61 VRB5G17 30.05F MILLINOCKET FAIR 32 15 49 W7 30.11F HOULTON FAIR 28 17 63 W5 30.05S PRESQUE ISLE FAIR 29 15 56 NW9 30.06R FRENCHVILLE FAIR 29 13 51 NW14G22 30.01S WCI 18 CARIBOU FAIR 30 13 49 NW15G22 30.02S WCI 19 $$ NHZ002-005-008-009-011-012-014-190400- NEW HAMPSHIRE CITY SKY/WX TMP DP RH WIND PRES REMARKS PORTSMOUTH CLEAR 31 22 70 CALM 30.23S ROCHESTER FAIR 30 22 72 CALM 30.23S NASHUA FAIR 36 21 54 W5 30.27R MANCHESTER FAIR 34 22 61 SW3 30.25R CONCORD FAIR 26 22 84 CALM 30.24S LACONIA FAIR 29 24 82 CALM 30.23R PLYMOUTH FAIR 28 22 78 W3 30.21S BERLIN FAIR 26 19 74 CALM 30.15F WHITEFIELD FAIR 29 19 66 SW5 30.18S JAFFREY FAIR 34 22 61 W5 30.24R KEENE FAIR 29 24 82 S5 30.26S LEBANON FAIR 28 21 75 S5 30.21F MT WASHINGTON NOT AVBL $$ VTZ005-007-008-190400- VERMONT CITY SKY/WX TMP DP RH WIND PRES REMARKS ST JOHNSBURY N/A 28 21 75 MISG 30.18F MONTPELIER MOCLDY 32 19 58 SW3 30.22F BURLINGTON CLOUDY 39 22 50 S5 30.22S $$ MAZ007-012-024-CTZ003-RIZ002-NYZ038-NYZ072-190400- SOUTHERN NEW ENGLAND AND NY CITY SKY/WX TMP DP RH WIND PRES REMARKS BOSTON FAIR 42 20 41 W15 30.27F WORCESTER FAIR 33 21 61 W10 30.24S NANTUCKET FAIR 44 21 40 W13G22 30.29F PROVIDENCE FAIR 35 25 66 W6 30.32S HARTFORD FAIR 38 21 50 CALM 30.32F ALBANY FAIR 35 25 66 S3 30.30F NEW YORK CITY FAIR 48 25 40 NW7 30.35S $$ ANZ081-ANZ082-ANZ150-NHZ014-MEZ023>029-190400- COASTAL MARINE OBSERVATIONS STATION/POSITION TIME TEMP WIND PRES WAVE AIR SEA DIR/SP/G HT/PER (UTC) (F) (DEG/KT/KT) (MB) (FT/S) MOUNT DESERT ROC 0300 39 290/ 25/ 27 1021.7S MATINICUS ROCK 0200 40 290/ 28/ 31 1021.8R ISLE OF SHOALS 0200 42 270/ 13/ 14 1023.8R JEFFREYS LEDGE 0206 55 N/A 3/ 4 $$ .............KEY.............. WCI - WIND CHILL TC - TEMPERATURE IN CELSIUS VSB - VISIBILITY IN MILES HX - HEAT INDEX FAIR- INDICATES FEW OR NO CLOUDS BELOW 12,000 FT, WITH NO SIGNIFICANT WEATHER AND/OR OBSTRUCTIONS TO VISIBILITY.

USA.gov is the U.S. government's official web portal to all federal, state and local government web resources and services.